{"data":{"norad_id":57447,"epoch":"2026-05-25T03:39:32.414400Z","epoch_age_seconds":71998,"freshness":"FRESH","line1":"1 57447U 23105T   26145.15245850  .00001187  00000+0  52664-4 0  9999","line2":"2 57447  43.0008 188.2131 0001272 281.6155  78.4553 15.27578233157275","mean_motion":15.27578233,"eccentricity":0.0001272,"inclination_deg":43.0008,"raan_deg":188.2131,"arg_perigee_deg":281.6155,"mean_anomaly_deg":78.4553,"bstar":5.2664e-5,"rev_number":15727,"period_min":94.266857755101,"perigee_km":482.18164353399,"apogee_km":483.92713062286,"semimajor_km":6861.1913870784,"source":"CELESTRAK","updated_at":"2026-05-25T13:38:18.321691Z"}}